Location: B�rgermoos
(47.6500°N, 9.0667°E)
Time: 09:22:48
(UTC+00:00)

A-11 Canister half - Pass Details

Date: 05 August 2021
Orbit: 1526 x 1683 km, 47.3° (Epoch: 20 September)

Event Time Altitude Azimuth Distance (km) Brightness Sun altitude
Rises 14:55:02 0° 288° (WNW) 4,921 12.3 38.1°
Reaches altitude 10° 14:58:16 10° 285° (WNW) 3,918 12.0 37.5°
Maximum altitude 15:08:02 60° 209° (SSW) 1,823 10.5 36.0°
Drops below altitude 10° 15:17:28 10° 133° (SE) 3,792 10.9 34.4°
Sets 15:20:33 0° 130° (SE) 4,754 11.3 33.9°
